This is the latest recevied weather packets stored in our database for station/object CA2JAT-13. If no packets are shown the sender has not sent any weather packets the latest 10 day(s).
| Time | Temp. | Humidity | Pressure | Rain* | Wind** | Luminosity | Snow |
|---|---|---|---|---|---|---|---|
| 1778067564 | 6.11° C | 92% | 1022.6 hPa | 0 mm | - | 0 W/m² | - |
| 1778063960 | 6.11° C | 94% | 1021.5 hPa | 0 mm | - | 0 W/m² | - |
| 1778062156 | 6.11° C | 94% | 1020.7 hPa | 0 mm | - | 0 W/m² | - |
| 1778060354 | 7.22° C | 89% | 1020.5 hPa | 0 mm | - | 0 W/m² | - |
| 1778058552 | 7.78° C | 92% | 1020.3 hPa | 0 mm | - | 0 W/m² | - |
| 1778056750 | 6.67° C | 95% | 1020.6 hPa | 0 mm | - | 0 W/m² | - |
| 1778054948 | 7.22° C | 90% | 1020.8 hPa | 0 mm | - | 0 W/m² | - |
| 1778053145 | 7.22° C | 92% | 1020.8 hPa | 0 mm | - | 0 W/m² | - |
| 1778051343 | 7.78° C | 89% | 1020.4 hPa | 0 mm | - | 0 W/m² | - |
| 1778049540 | 7.78° C | 93% | 1020 hPa | 0 mm | - | 0 W/m² | - |
| 1778047737 | 7.78° C | 92% | 1019.5 hPa | 0 mm | - | 0 W/m² | - |
| 1778045934 | 7.78° C | 89% | 1019.9 hPa | 0 mm | - | 0 W/m² | - |
| 1778044132 | 8.33° C | 93% | 1020 hPa | 0 mm | - | 0 W/m² | - |
| 1778042329 | 9.44° C | 92% | 1019.9 hPa | 0 mm | - | 0 W/m² | - |
| 1778040527 | 9.44° C | 84% | 1020.6 hPa | 0 mm | - | 0 W/m² | - |
| 1778038723 | 9.44° C | 84% | 1020.6 hPa | 0 mm | - | 0 W/m² | - |
| 1778036921 | 10° C | 92% | 1020.3 hPa | 0 mm | - | 0 W/m² | - |
| 1778035119 | 10.56° C | 78% | 1019.7 hPa | 0 mm | - | 0 W/m² | - |
| 1778033316 | 11.67° C | 78% | 1019.1 hPa | 0 mm | - | 0 W/m² | - |
| 1778031513 | 11.67° C | 74% | 1019.1 hPa | 0 mm | - | 0 W/m² | - |
| 1778029678 | 12.78° C | 66% | 1018.2 hPa | 0 mm | - | 0 W/m² | - |
| 1778027876 | 12.78° C | 66% | 1018.2 hPa | 0 mm | - | 0 W/m² | - |
| 1778026074 | 15° C | 60% | 1017.3 hPa | 0 mm | - | 0 W/m² | - |
| 1778024271 | 15.56° C | 62% | 1016.5 hPa | 0 mm | - | 0 W/m² | - |
| 1778022469 | 16.11° C | 60% | 1015.9 hPa | 0 mm | - | 0 W/m² | - |
* Rain latest hour (hover to see other rain measurements)
** Current wind speed in m/s (hover to see current wind gust speed)